Location: South Schenectady
(42.7870°N, 73.9710°W)
Time: 04:49:04
(UTC+00:00)

Daily predictions for brighter satellites

Satellite Brightness Start Highest point End
(mag) Time Altitude Azimuth Time Altitude Azimuth Time Altitude Azimuth
ISS -0.9 00:01:16 10° WNW 00:02:03 16° WNW 00:02:03 16° WNW
SL-16 R/B 3.2 00:01:50 10° NNW 00:05:04 35° N 00:05:04 35° N
USA 267 4.5 00:07:36 26° N 00:08:56 28° NNW 00:14:18 10° WNW
Cosmos 2082 Rocket 3.8 00:04:06 10° WSW 00:09:02 29° NW 00:11:58 19° N
ATLAS 5 CENTAUR R/B 4.1 00:06:10 10° NW 00:08:17 21° NW 00:08:17 21° NW
CZ-2C R/B 4.2 00:19:22 10° SW 00:19:38 11° SW 00:19:38 11° SW
Lacrosse 5 rocket 4.2 00:18:39 10° NW 00:18:55 12° NW 00:18:55 12° NW
CENTAUR R/B 3.4 08:51:34 42° NE 08:51:34 42° NE 08:56:07 10° NE
Cosmos 1943 Rocket 3.9 08:53:41 26° NE 08:53:41 26° NE 08:56:08 10° NNE
NOSS 3-2 (C) 3.7 09:13:27 57° NE 09:13:27 57° NE 09:18:27 10° NE
Cosmos 2344 3.6 09:14:06 57° NNW 09:14:06 57° NNW 09:20:49 10° NNE
Tsikada Rocket 3.8 09:27:15 10° S 09:33:26 86° W 09:39:46 10° N
SL-8 R/B 4.3 09:39:49 47° NNE 09:39:49 47° NNE 09:44:04 10° E
Meteor 2-3 Rocket 3.7 09:40:23 67° NNW 09:40:23 67° NNW 09:45:28 10° N
USA 238 DEB 3.5 09:40:07 60° NW 09:40:10 61° NW 09:46:57 10° NNE
USA 238 3.5 09:40:11 61° NW 09:40:16 61° NW 09:47:03 10° NNE
BREEZE-M DEB (TANK) 3.0 09:43:04 76° WNW 09:43:27 86° SSW 09:55:53 10° ESE
USA 215 3.8 09:41:25 10° ESE 09:47:41 52° NNE 09:50:34 31° NNW
Cosmos 1241 Rocket 4.3 09:49:45 59° W 09:50:29 64° WSW 09:56:36 10° SSE
Meteor 1-31 Rocket 4.0 09:48:03 10° NNE 09:51:47 42° E 09:55:30 10° S
Cosmos 921 Rocket 2.9 09:53:48 85° NNE 09:53:55 87° E 09:58:23 10° SSE
Cosmos 1782 4.4 09:57:34 24° S 09:57:34 24° S 09:59:12 10° S
Meteor 1-26 Rocket 4.2 09:56:03 37° NNW 09:58:23 67° W 10:04:03 10° S
Cosmos 2263 4.3 09:53:05 10° SSW 09:58:44 74° ESE 10:04:29 10° NNE
H-2A R/B 2.7 09:55:54 10° NNE 09:59:36 76° E 10:03:22 10° S
Cosmos 2208 Rocket 4.4 10:02:49 43° WSW 10:02:49 43° WSW 10:07:15 10° S
Cosmos 1867 4.2 10:03:11 36° SW 10:03:11 36° SW 10:07:27 10° S
Cosmos 1862 3.7 09:58:50 10° S 10:02:42 61° E 10:06:37 10° NNE
Okean 3 Rocket 4.1 10:00:23 10° S 10:04:51 62° E 10:09:21 10° NNE
Cosmos 1151 Rocket 3.0 10:05:51 26° N 10:08:20 82° E 10:12:43 10° S
Cosmos 1503 Rocket 4.4 10:03:39 10° S 10:08:50 64° ESE 10:14:07 10° NNE
Cosmos 2369 Rocket 2.0 10:05:54 20° SW 10:09:45 67° WNW 10:15:21 10° NNE
SL-19 R/B 4.2 10:06:55 10° S 10:12:29 66° WSW 10:16:12 21° NNW
SJ-12 3.8 10:09:10 10° N 10:13:18 74° WNW 10:17:25 10° SSW
Cosmos 1766 Rocket 3.4 10:09:34 10° S 10:13:54 88° ESE 10:18:15 10° N
Meteor 2-13 Rocket 4.4 10:08:26 10° SSW 10:14:28 62° W 10:20:31 10° N
Cosmos 1486 Rocket 3.9 10:10:57 10° SSW 10:16:13 66° WNW 10:21:29 10° NNE
BREEZE M DEB (TANK) 3.8 10:21:35 29° NNW 10:21:36 29° NNW 10:23:57 10° NE
Cosmos 1328 Rocket 3.5 10:20:36 11° N 10:24:50 87° E 10:29:11 10° S
Cosmos 1656 Rocket 3.5 10:20:49 10° SSW 10:26:11 67° WNW 10:31:37 10° NNE
Iridium 2 3.8 10:23:05 10° SSW 10:26:45 48° W 10:26:47 48° W
CZ-4B R/B 4.5 10:24:19 10° NNE 10:27:35 32° E 10:30:50 10° SSE
DNEPR-1 R/B 3.9 10:27:07 25° NW 10:30:02 88° SW 10:35:53 10° SSE
COSMO-SKYMED 1 2.6 10:28:28 10° S 10:32:43 54° W 10:35:30 20° NNW
CZ-2C R/B 2.7 10:28:45 10° S 10:34:10 59° W 10:39:31 10° NNW
Cosmos 1943 Rocket 3.4 10:35:16 22° NW 10:35:16 22° NW 10:39:05 10° N
Envisat 3.2 10:34:51 10° N 10:39:43 46° WNW 10:44:32 10° SW
CENTAUR R/B 3.5 10:38:46 23° WNW 10:40:49 27° NNW 10:46:51 10° NNE
Cosmos 2098 Rocket 3.6 10:42:31 10° SW 10:46:06 34° WNW 10:50:31 10° N
Cosmos 1408 Rocket 3.4 10:43:48 10° S 10:48:07 85° W 10:52:26 10° N
DELTA 2 R/B (1) 4.0 10:47:14 15° WSW 10:51:49 60° S 10:57:16 10° E
Cosmos 1340 Rocket 3.6 10:49:40 10° S 10:53:30 55° E 10:57:25 10° NNE
Cosmos 2279 Rocket 4.1 10:47:57 10° NNW 10:53:53 49° W 10:59:47 10° SSW
Cosmos 1174 4.1 10:52:48 10° SSW 10:55:41 48° ESE 10:58:39 10° NE
SMAP 4.3 10:51:44 10° NNE 10:56:14 46° E 11:00:42 10° S
Cosmos 1743 Rocket 4.1 10:52:08 10° S 10:56:27 61° E 11:00:46 10° NNE
NOAA 11 4.1 10:55:08 10° N 11:00:35 70° WNW 11:06:02 10° SSW
Nadezhda 4 Rocket 3.9 10:56:10 10° S 11:02:20 82° W 11:08:36 10° N
Meteor 1-27 Rocket 3.8 10:56:44 10° N 11:02:25 88° ENE 11:08:11 10° S
CZ-4B R/B 3.3 11:00:36 10° SE 11:03:33 30° ENE 11:06:29 10° N
Cosmos 1812 4.2 11:03:50 18° W 11:04:08 18° W 11:06:45 10° SW
DMSP B5D1-3 4.5 10:59:22 10° S 11:04:30 78° WSW 11:09:41 10° NNW
Meteor 2-15 Rocket 4.4 10:58:56 10° N 11:05:02 79° W 11:11:05 10° S
Cosmos 1515 Rocket 3.5 11:02:19 10° NNW 11:06:38 61° W 11:10:53 10° S
Cosmos 1939 Rocket 3.0 11:03:12 10° NNE 11:07:08 74° E 11:11:00 10° S
ATLAS 3B R/B 3.0 11:02:01 10° SSW 11:08:27 69° ESE 11:15:12 10° NE
Cosmos 1354 Rocket 4.3 11:04:44 10° SW 11:09:47 46° WNW 11:14:54 10° N
SJ 16-02 1.3 11:06:16 10° SSW 11:10:39 85° WNW 11:15:02 10° NNE
Meteor PRIRODA 3.6 11:07:34 10° N 11:11:07 55° WNW 11:14:40 10° SSW
ADEOS 3.8 11:08:53 10° N 11:13:52 46° WNW 11:18:50 10° SW
Cosmos 1515 4.2 11:10:09 10° N 11:13:56 61° E 11:17:41 10° SSE
Cosmos 1092 Rocket 4.2 11:11:45 10° S 11:17:57 78° E 11:24:17 10° N
CZ-4C R/B 4.2 11:17:43 10° SW 11:20:05 20° W 11:22:18 11° NW
SL-8 R/B 3.8 11:17:47 12° WNW 11:22:08 68° SSW 11:26:53 10° SE
ATLAS 5 CENTAUR R/B 1.2 11:18:40 10° SW 11:22:27 74° NW 11:26:42 10° NNE
Cosmos 1500 Rocket 3.6 11:20:29 10° SSW 11:24:52 61° W 11:29:19 10° N
Meteor 1-31 Rocket 4.4 11:23:28 10° NNW 11:25:48 15° WNW 11:28:08 10° WSW
CZ-2C R/B 3.1 11:21:54 10° N 11:26:36 50° WNW 11:31:30 10° SW
Okean 1 4.3 11:24:55 10° N 11:28:47 49° E 11:32:36 10° SSE
Geosat FO 4.4 11:25:30 10° SSE 11:28:49 68° WSW 11:32:07 10° NNW
USA 215 3.6 11:24:17 10° SSE 11:30:39 54° SW 11:37:02 10° NW
Meteor 1-25 Rocket 4.3 11:26:01 10° S 11:31:40 89° E 11:37:16 10° N
COSMOS 2487 2.5 11:31:10 10° NNW 11:34:32 77° ENE 11:37:52 10° SSE
Sich 1 3.2 11:31:04 10° S 11:35:20 79° E 11:39:38 10° N
Cosmos 1805 Rocket 3.5 11:32:19 10° SSW 11:36:43 78° W 11:41:07 10° N
Alouette 2 Rocket 3.2 11:33:42 10° NNW 11:37:22 59° W 11:40:55 10° S
H-2A R/B 2.4 11:34:13 10° S 11:38:18 46° W 11:42:30 10° NNW
Cosmos 1538 Rocket 4.0 11:34:33 10° NNW 11:39:49 86° WSW 11:45:00 10° SSE
